Probability
0 0 0 0 0 0 0 0 0 0 0 0 0 0 0 0 0 0 0 0 0 0 0 1 2 2 1 2 5 8 9 9 7 6 6 6 5 2 0 1 2 4 5 6
0 0 0 0 0 0 0 0 0 0 0 0 0 0 0 0 0 0 0 0 0 0 0 1 2 2 1 2 5 8 10 10 8 6 5 5 5 3 1 2 3 3 4 5
0 0 0 0 0 0 0 0 0 0 0 0 0 0 0 0 0 1 1 2 2 1 1 0 1 1 1 2 5 8 10 10 9 8 6 5 6 5 4 4 3 3 3 4
0 0 0 0 0 0 0 0 0 0 0 0 0 0 0 0 0 1 2 3 4 4 3 1 2 2 2 3 4 6 8 10 10 10 9 8 7 6 6 5 5 4 3 3
0 0 0 0 0 0 0 0 0 0 0 0 0 0 0 0 0 1 2 3 3 4 4 4 4 5 5 5 4 5 8 9 10 11 12 12 10 7 7 8 9 7 4 4
1 2 1 1 0 0 0 1 1 1 0 0 0 0 0 0 0 1 2 3 3 4 5 6 6 7 8 7 6 6 7 8 8 9 11 13 12 11 12 13 13 10 6 4
2 2 2 2 1 0 1 2 2 1 0 0 0 0 0 0 0 1 2 3 3 3 4 5 6 8 10 9 8 8 7 6 6 6 8 11 13 15 16 16 14 9 6 5
1 1 3 3 1 0 1 2 2 1 0 0 1 0 0 0 0 0 1 2 2 2 3 4 6 9 10 10 9 7 7 7 7 8 9 11 13 15 16 16 12 8 6 6
0 1 3 3 2 1 1 1 1 0 0 0 1 0 0 0 1 1 1 1 2 3 4 5 6 8 9 9 8 7 8 8 10 10 10 11 13 14 15 14 11 7 7 9
1 2 3 3 3 2 1 0 0 0 0 0 1 0 0 0 1 2 3 4 5 6 6 7 7 8 8 8 8 10 10 10 11 11 11 11 12 14 15 13 11 10 11 12
0 1 2 2 2 2 2 0 0 0 0 0 0 0 0 0 1 2 5 7 8 9 8 9 9 9 7 7 10 15 16 14 12 12 12 12 11 13 14 13 12 14 14 14
0 1 1 2 2 3 2 0 0 0 0 0 0 0 0 0 1 3 7 12 14 13 13 13 13 12 11 13 17 22 24 22 17 14 14 13 12 12 12 12 12 13 14 15
0 0 0 1 2 2 1 0 0 0 0 0 0 0 0 0 1 3 9 15 19 19 19 19 17 17 18 20 24 28 30 28 23 17 15 14 13 12 13 12 11 11 12 13
0 0 0 0 1 1 1 0 0 0 0 0 0 1 2 2 2 5 10 17 22 22 23 22 21 22 24 26 28 30 31 29 26 21 17 15 15 15 15 14 12 13 13 13
0 0 0 0 0 0 0 0 0 0 0 0 0 2 4 6 7 9 13 19 23 24 23 24 25 26 29 31 30 31 30 27 25 23 20 17 18 19 18 17 16 16 16 15
0 0 0 0 0 0 0 0 0 0 0 0 0 3 6 8 10 14 17 20 24 26 26 28 30 31 35 38 37 35 32 29 27 26 23 22 21 22 21 20 20 20 19 18
0 0 0 0 0 0 0 0 0 0 0 1 3 5 7 8 10 15 19 22 24 26 27 31 34 37 39 42 42 39 36 32 29 25 23 23 24 23 22 22 23 23 21 19
0 0 0 0 0 0 0 0 1 1 1 4 7 8 8 7 7 11 15 20 24 24 25 29 35 39 41 41 40 39 36 32 27 22 20 21 22 21 19 21 24 27 25 22
0 0 0 0 0 0 0 1 2 3 4 6 8 9 8 6 6 8 13 20 25 26 26 29 34 39 42 41 39 39 36 30 25 22 21 21 21 18 17 20 23 26 26 24
1 1 0 0 0 0 0 1 2 4 5 7 8 9 10 9 9 11 16 25 30 31 31 32 34 38 43 44 42 40 36 30 25 24 25 24 23 21 20 20 20 22 23 22
1 1 0 0 0 1 2 2 4 8 11 12 12 13 14 13 12 14 19 27 31 32 32 32 32 35 40 45 45 43 38 32 28 28 28 27 24 22 21 19 18 19 20 19
4 4 3 3 2 2 4 6 10 15 18 19 18 17 16 14 12 12 16 21 26 29 29 28 29 32 37 43 46 45 41 35 33 32 31 27 24 20 18 17 17 18 18 18
8 9 10 9 7 5 6 10 14 17 21 23 21 18 15 12 10 10 12 16 21 27 28 26 25 29 34 39 42 43 41 38 37 36 33 28 24 21 18 18 17 17 17 16
11 13 15 14 11 9 10 13 14 16 20 23 21 17 14 12 10 10 10 14 20 25 27 25 24 26 31 35 37 38 38 37 36 35 32 28 25 23 21 19 17 16 16 16
12 14 16 16 13 12 13 13 14 17 19 21 20 17 14 13 11 9 10 15 21 24 25 26 25 28 33 36 36 36 35 33 30 29 28 26 25 25 22 18 15 13 13 13
12 14 15 15 15 15 13 12 14 17 18 19 19 17 15 13 11 9 11 18 22 23 24 27 28 30 35 38 37 36 34 30 26 24 23 23 25 26 23 18 13 9 8 8
Wind_Speed
9 10 10 10 8 4 6 6 6 6 5 6 5 4 6 9 9 9 9 9 9 9 8 8 7 6 6 6 6 6 5 4 3 3 2 2 2 1 1 1 2 1 1 1
10 10 8 7 7 8 8 8 7 6 5 5 4 5 5 8 10 9 9 10 10 9 9 9 8 7 7 7 7 7 6 5 5 3 2 1 1 1 1 1 2 1 1 1
13 8 8 10 11 11 9 8 6 5 6 6 5 6 7 8 8 8 9 9 10 10 10 10 9 9 8 8 8 6 6 6 5 4 3 2 2 2 2 2 1 1 1 1
10 8 10 11 12 11 10 7 6 6 7 5 6 4 6 8 8 10 10 10 11 10 10 10 10 9 9 8 8 8 7 7 6 6 4 4 2 1 1 1 1 1 1 1
10 11 12 13 12 11 6 6 7 8 8 6 6 6 4 7 7 9 10 10 11 11 10 10 10 10 9 8 8 8 8 7 7 6 5 5 3 2 2 1 2 1 1 1
8 8 10 9 9 8 7 7 7 8 9 8 6 7 3 5 7 7 9 10 11 11 11 10 10 9 8 8 8 8 8 7 7 7 6 5 4 3 2 2 2 2 1 1
11 11 9 8 10 11 12 10 7 8 8 6 5 7 2 2 4 5 7 9 10 11 11 11 11 10 9 9 8 8 8 8 8 7 6 6 5 4 4 3 2 2 1 1
13 14 13 11 12 10 14 14 9 7 6 6 7 7 2 3 3 4 5 7 9 10 11 11 12 11 10 9 9 9 9 8 8 7 6 5 5 4 3 3 2 2 1 0
10 10 10 10 9 11 13 14 11 10 8 7 6 5 4 4 5 5 7 8 9 10 10 11 12 11 10 10 9 9 9 8 8 7 6 5 4 3 2 3 3 2 1 1
7 8 10 9 10 9 11 11 9 10 9 9 7 7 4 6 6 6 7 8 8 9 10 11 11 11 10 10 9 9 9 8 8 8 7 6 5 5 4 3 2 1 1 1
9 8 10 11 13 13 12 12 11 9 9 10 7 4 2 3 5 6 7 7 8 8 9 9 10 10 10 10 10 9 9 9 8 7 7 6 5 4 4 3 3 2 1 1
9 9 9 11 7 7 11 12 13 10 9 10 9 3 5 3 3 5 6 7 7 7 8 8 9 10 10 10 10 10 9 9 8 7 7 6 5 5 4 3 2 2 1 2
7 8 10 11 11 9 11 12 12 11 9 9 10 4 6 4 4 4 6 6 7 7 7 7 8 9 10 10 9 10 10 9 8 8 8 7 6 5 5 4 3 2 2 2
7 9 10 11 8 9 11 12 12 13 11 10 11 6 4 4 4 5 5 6 7 7 7 7 7 8 9 9 9 9 9 10 9 9 9 8 7 6 5 4 4 3 3 3
7 10 9 8 6 9 10 11 12 14 13 11 9 8 4 3 4 4 5 6 6 7 7 7 8 8 9 9 10 9 9 9 9 9 8 8 7 6 5 5 4 4 3 3
5 8 9 10 9 9 10 12 13 13 13 12 11 7 2 3 3 3 4 5 6 6 6 7 8 9 9 10 10 10 10 9 9 9 8 7 7 6 6 5 5 4 3 3
5 7 10 10 10 11 13 11 12 11 11 11 10 6 4 3 3 3 4 5 5 5 6 7 7 8 9 9 10 10 9 9 8 8 7 7 7 7 6 5 5 4 4 4
6 8 8 9 10 15 6 6 9 10 9 8 5 3 4 3 3 2 3 4 4 5 5 6 6 7 8 9 9 9 9 9 8 8 8 7 7 7 6 5 5 4 4 4
8 8 8 9 12 10 6 6 8 9 8 6 6 5 4 3 4 2 1 2 3 4 4 5 6 7 8 8 9 10 9 9 8 8 8 8 8 7 7 6 5 5 4 4
7 8 8 9 12 11 5 4 3 8 9 5 5 6 6 6 6 3 1 1 2 3 3 5 6 7 8 8 9 10 9 9 8 8 8 7 7 7 7 6 5 5 4 4
8 8 10 10 10 5 2 2 6 9 3 2 3 4 5 5 2 1 1 2 2 3 4 5 6 6 7 8 9 9 9 8 8 7 7 7 7 7 7 6 5 5 5 4
6 7 8 8 10 5 2 3 4 2 2 1 2 2 2 2 1 1 1 2 3 4 4 5 5 6 6 8 9 8 8 8 8 8 7 7 7 6 6 6 5 5 5 5
3 2 1 2 1 4 2 1 2 0 1 1 0 0 1 1 1 1 1 1 2 3 4 5 5 5 6 7 8 8 7 7 8 8 7 7 7 6 6 6 6 6 5 5
3 1 2 2 2 0 0 1 1 1 1 0 0 1 1 1 1 1 0 1 1 3 4 4 5 5 6 7 7 6 7 7 7 7 7 6 6 6 6 5 5 4 4 4
1 2 3 4 2 3 2 1 2 2 1 1 1 1 1 1 1 1 0 0 1 2 3 4 4 5 5 7 6 6 7 7 7 7 6 6 6 5 5 4 2 3 2 1
2 3 3 1 1 1 1 1 2 2 2 2 2 2 1 1 1 1 1 0 1 1 2 3 4 4 5 5 6 6 7 7 7 7 6 5 5 5 4 4 3 4 2 4
Wind_Direction
191 203 200 194 207 203 179 179 167 148 150 195 202 199 178 178 195 194 192 191 192 194 187 185 188 191 189 188 185 183 183 167 176 179 185 169 152 136 116 110 88 94 100 111
195 207 200 187 190 195 189 187 175 159 162 215 213 219 196 188 201 202 198 195 195 191 187 188 190 190 192 188 187 184 181 177 185 174 181 167 111 121 102 75 86 83 92 98
207 188 177 186 189 196 199 202 193 180 174 203 231 213 199 191 197 202 205 203 201 196 191 188 192 194 192 191 189 187 182 179 185 183 181 162 163 180 154 136 128 93 80 80
211 188 183 192 197 205 202 201 207 196 209 201 229 230 187 192 195 199 201 202 202 198 194 191 191 192 195 191 186 186 183 183 183 187 190 187 189 179 133 146 122 114 96 101
197 190 195 204 204 214 207 186 203 212 229 233 217 255 180 180 204 203 197 199 199 195 192 191 191 188 189 186 186 183 182 184 185 188 187 197 203 191 174 160 132 162 136 186
198 192 209 209 202 205 168 173 190 214 231 230 220 250 208 185 214 205 194 195 194 192 190 190 188 183 183 183 184 181 177 185 188 190 192 200 203 203 195 196 195 200 175 177
196 192 196 200 184 182 196 200 204 207 215 221 195 242 233 181 205 210 197 190 187 188 188 185 184 182 184 184 182 180 178 184 188 190 193 197 203 205 208 220 210 233 205 192
200 196 191 198 207 199 208 221 233 234 225 200 187 233 184 162 177 196 191 182 182 184 186 186 185 183 184 184 183 181 180 183 185 188 189 195 200 208 204 209 227 225 251 278
207 197 177 196 214 218 208 224 240 251 251 250 205 209 198 181 190 185 182 179 180 183 185 186 184 183 183 184 185 184 181 183 184 182 176 180 189 201 201 198 213 216 221 193
227 206 181 184 202 218 236 221 222 236 242 241 222 220 213 181 194 188 184 183 180 179 181 182 181 181 183 183 182 182 182 182 181 179 181 176 179 186 197 208 203 205 205 203
226 215 185 190 209 203 202 213 227 232 243 248 238 209 156 187 197 197 188 181 179 183 178 179 180 180 182 180 176 177 178 179 179 178 176 173 171 175 182 190 187 183 189 190
222 226 208 204 204 244 222 219 219 225 227 242 258 205 119 161 181 185 181 176 174 178 175 175 176 177 180 181 178 175 176 176 174 167 166 164 163 164 171 168 167 171 180 189
207 225 210 199 195 205 219 220 225 233 231 234 244 208 131 139 157 172 178 173 169 173 173 171 172 177 179 180 180 174 173 169 162 160 165 163 165 163 166 164 163 163 168 177
239 228 236 227 213 197 207 214 221 231 233 233 240 235 168 167 175 171 172 170 168 170 172 170 170 174 175 176 175 174 172 165 164 166 168 166 169 171 164 160 159 160 162 162
233 228 230 246 241 220 217 218 220 229 241 249 243 242 213 196 198 184 172 169 166 167 171 171 172 171 172 172 173 173 171 168 166 169 171 171 167 159 156 153 152 151 147 143
233 231 220 226 226 224 228 226 223 227 236 245 249 245 206 204 191 174 173 175 175 175 175 174 175 172 172 174 174 170 171 168 168 170 167 159 157 154 152 152 152 150 147 137
217 218 220 221 212 220 224 226 226 225 234 244 243 239 214 204 201 199 194 192 192 185 178 175 176 175 174 172 168 166 161 158 159 161 159 159 157 154 154 156 152 154 152 143
221 227 225 220 212 227 216 223 234 233 231 238 245 227 221 209 214 210 196 194 200 194 185 178 174 171 171 165 160 157 156 158 161 161 160 162 161 159 158 162 161 160 151 144
217 221 227 222 219 222 200 208 221 226 223 221 221 220 211 198 210 186 155 200 204 197 182 172 173 165 160 159 156 155 159 163 166 167 167 167 165 162 165 166 166 162 152 148
191 219 232 225 229 225 192 162 230 234 218 199 210 212 212 218 232 196 151 192 184 176 163 159 158 155 153 155 156 158 162 165 170 171 169 167 166 165 167 164 166 164 167 166
183 200 222 227 231 218 85 183 201 222 191 165 208 210 217 228 278 67 120 149 158 154 154 156 154 155 154 156 160 165 165 167 167 165 165 168 169 169 168 168 170 172 179 172
205 198 208 226 232 206 83 201 213 28 45 146 182 191 189 162 152 150 115 140 147 150 154 156 156 156 155 160 166 170 171 166 162 162 163 165 169 172 165 170 175 179 181 180
237 302 259 274 330 46 17 21 58 129 167 148 166 110 134 183 172 149 168 174 164 163 162 163 163 160 162 169 174 176 169 162 160 159 161 163 167 170 169 176 179 183 189 198
163 251 233 223 169 133 13 64 110 124 140 240 225 193 186 174 156 131 127 184 183 171 166 166 168 169 172 176 180 174 160 162 162 162 164 167 171 173 172 184 190 194 194 200
244 217 215 215 185 159 142 74 73 76 83 69 50 73 112 118 111 103 107 122 193 174 170 172 176 174 176 177 176 166 163 167 168 169 172 175 176 171 172 180 191 208 185 208
234 248 258 246 162 213 117 57 58 72 70 55 61 62 65 73 73 60 54 58 195 191 188 186 183 180 171 167 169 166 168 174 174 175 179 181 178 170 176 174 163 67 63 78